SVR776 ZBAD-USSS

Flight info

Callsign SVR776
Flight time N/A
Altitude 34100
Route IDKEX6K IDKEX B339 ASILA A575 SND Y655 AROGU/K0835S1100 A575 DARNO/K0833F360 A575 ODIDA B926 SZ R814 ML/K0830F380 A300 RUBOR T448 SOPUS SOPUS6R
Aircraft A319/M-SDE3FGHIRWY/LB1

Departure

Time 2026-04-30 11:16
Airport Beijing Daxing International Airport (ZBAD)

Arrival

Time N/A
Airport Koltsovo Airport (USSS)
Time Latitude Longitude Altitude Speed Heading
2026-04-30 10:25 39.50655 116.41267 85 ft 0 kts 256°
2026-04-30 10:47 39.50655 116.41268 85 ft 0 kts 256°
2026-04-30 11:04 39.50658 116.41283 84 ft 4 kts 256°
2026-04-30 11:04 39.50663 116.41306 88 ft 4 kts 256°
2026-04-30 11:05 39.50673 116.41348 87 ft 4 kts 231°
2026-04-30 11:05 39.50685 116.41366 89 ft 4 kts 231°
2026-04-30 11:05 39.50699 116.41388 89 ft 0 kts 231°
2026-04-30 11:08 39.50697 116.41385 88 ft 2 kts 229°
2026-04-30 11:08 39.50678 116.41370 88 ft 5 kts 201°
2026-04-30 11:08 39.50638 116.41374 89 ft 7 kts 162°
2026-04-30 11:08 39.50593 116.41396 86 ft 7 kts 158°
2026-04-30 11:09 39.50542 116.41424 86 ft 9 kts 165°
2026-04-30 11:09 39.50468 116.41440 86 ft 12 kts 174°
2026-04-30 11:09 39.50378 116.41454 86 ft 14 kts 173°
2026-04-30 11:09 39.50287 116.41469 87 ft 10 kts 173°
2026-04-30 11:10 39.50236 116.41486 87 ft 7 kts 141°
2026-04-30 11:10 39.50229 116.41545 85 ft 7 kts 82°
2026-04-30 11:10 39.50237 116.41622 85 ft 10 kts 82°
2026-04-30 11:10 39.50248 116.41721 86 ft 12 kts 82°
2026-04-30 11:11 39.50252 116.41760 85 ft 12 kts 82°
2026-04-30 11:11 39.50262 116.41864 86 ft 11 kts 82°
2026-04-30 11:11 39.50272 116.41963 85 ft 11 kts 83°
2026-04-30 11:11 39.50280 116.42056 85 ft 10 kts 83°
2026-04-30 11:12 39.50288 116.42145 88 ft 10 kts 83°
2026-04-30 11:12 39.50296 116.42228 85 ft 9 kts 83°
2026-04-30 11:12 39.50281 116.42297 86 ft 8 kts 135°
2026-04-30 11:12 39.50232 116.42317 86 ft 7 kts 174°
2026-04-30 11:13 39.50185 116.42323 88 ft 7 kts 174°
2026-04-30 11:13 39.50147 116.42345 88 ft 6 kts 135°
2026-04-30 11:13 39.50136 116.42394 86 ft 6 kts 94°
2026-04-30 11:13 39.50140 116.42458 87 ft 8 kts 84°
2026-04-30 11:14 39.50145 116.42528 91 ft 7 kts 84°
2026-04-30 11:14 39.50150 116.42582 92 ft 4 kts 84°
2026-04-30 11:14 39.50152 116.42614 94 ft 4 kts 84°
2026-04-30 11:14 39.50153 116.42649 94 ft 4 kts 96°
2026-04-30 11:15 39.50134 116.42669 95 ft 3 kts 168°
2026-04-30 11:15 39.50111 116.42673 95 ft 6 kts 172°
2026-04-30 11:15 39.49903 116.42709 98 ft 62 kts 172°
2026-04-30 11:15 39.49273 116.42804 97 ft 118 kts 173°
2026-04-30 11:16 39.48290 116.42959 99 ft 164 kts 173°
2026-04-30 11:16 39.47129 116.43150 558 ft 163 kts 174°
2026-04-30 11:16 39.46003 116.43422 933 ft 168 kts 158°
2026-04-30 11:16 39.44970 116.44206 1362 ft 177 kts 145°
2026-04-30 11:17 39.43978 116.45165 1874 ft 178 kts 145°
2026-04-30 11:17 39.43191 116.46416 2332 ft 184 kts 118°
2026-04-30 11:17 39.42880 116.48028 2798 ft 188 kts 92°
2026-04-30 11:17 39.43043 116.49716 3260 ft 191 kts 81°
2026-04-30 11:18 39.43258 116.51503 3457 ft 212 kts 81°
2026-04-30 11:18 39.43734 116.55709 3842 ft 260 kts 81°
2026-04-30 11:18 39.43999 116.58091 3939 ft 271 kts 81°
2026-04-30 11:19 39.44269 116.60512 3944 ft 272 kts 81°
2026-04-30 11:19 39.44541 116.62932 3949 ft 272 kts 80°
2026-04-30 11:19 39.45221 116.65188 3971 ft 273 kts 52°
2026-04-30 11:19 39.46497 116.67031 4650 ft 275 kts 46°
2026-04-30 11:20 39.47781 116.68841 4881 ft 271 kts 46°
2026-04-30 11:20 39.49042 116.70648 4932 ft 269 kts 47°
2026-04-30 11:20 39.50236 116.72370 4937 ft 268 kts 47°
2026-04-30 11:20 39.51467 116.74145 4941 ft 268 kts 47°
2026-04-30 11:21 39.52729 116.75963 4957 ft 269 kts 47°
2026-04-30 11:21 39.53985 116.77776 5648 ft 270 kts 47°
2026-04-30 11:21 39.55029 116.79768 6432 ft 273 kts 62°
2026-04-30 11:21 39.55861 116.81966 7191 ft 275 kts 62°
2026-04-30 11:22 39.56713 116.84229 7931 ft 277 kts 62°
2026-04-30 11:22 39.57562 116.86486 8674 ft 280 kts 62°
2026-04-30 11:22 39.58419 116.88760 9416 ft 282 kts 62°
2026-04-30 11:22 39.59288 116.91056 10053 ft 288 kts 62°
2026-04-30 11:23 39.60210 116.93488 10198 ft 311 kts 62°
2026-04-30 11:23 39.61199 116.96098 10325 ft 334 kts 61°
2026-04-30 11:23 39.64356 117.00699 11056 ft 352 kts 31°
2026-04-30 11:24 39.66575 117.02043 11651 ft 354 kts 17°
2026-04-30 11:24 39.69014 117.02555 12263 ft 358 kts
2026-04-30 11:24 39.71509 117.02295 12870 ft 361 kts 354°
2026-04-30 11:25 39.76537 117.01533 14051 ft 367 kts 354°
2026-04-30 11:25 39.79081 117.01146 14587 ft 370 kts 354°
2026-04-30 11:25 39.84227 117.00368 15657 ft 375 kts 354°
2026-04-30 11:26 39.89450 116.99579 16709 ft 381 kts 354°
2026-04-30 11:26 39.92094 116.99182 17233 ft 384 kts 354°
2026-04-30 11:26 39.94759 116.98781 17752 ft 387 kts 354°
2026-04-30 11:27 39.97432 116.98382 18248 ft 390 kts 354°
2026-04-30 11:27 40.00146 116.97977 18695 ft 392 kts 354°
2026-04-30 11:27 40.02864 116.97570 19141 ft 395 kts 354°
2026-04-30 11:27 40.05601 116.97155 19563 ft 397 kts 354°
2026-04-30 11:28 40.11129 116.96317 20416 ft 402 kts 354°
2026-04-30 11:28 40.13920 116.95894 20815 ft 405 kts 354°
2026-04-30 11:28 40.16726 116.95469 21222 ft 407 kts 354°
2026-04-30 11:29 40.19551 116.95039 21612 ft 410 kts 354°
2026-04-30 11:29 40.22389 116.94608 21994 ft 412 kts 354°
2026-04-30 11:29 40.28119 116.93736 22742 ft 417 kts 354°
2026-04-30 11:30 40.33881 116.92858 23471 ft 422 kts 354°
2026-04-30 11:30 40.36802 116.92412 23781 ft 424 kts 354°
2026-04-30 11:30 40.39738 116.91969 24103 ft 425 kts 354°
2026-04-30 11:31 40.42684 116.91523 24425 ft 427 kts 354°
2026-04-30 11:31 40.45596 116.90775 24736 ft 429 kts 345°
2026-04-30 11:31 40.48391 116.89361 25044 ft 432 kts 335°
2026-04-30 11:31 40.50977 116.87321 25341 ft 435 kts 325°
2026-04-30 11:32 40.53309 116.84776 25649 ft 438 kts 320°
2026-04-30 11:32 40.55608 116.82139 25942 ft 439 kts 320°
2026-04-30 11:32 40.57915 116.79495 26244 ft 440 kts 320°
2026-04-30 11:33 40.62552 116.74188 26821 ft 443 kts 320°
2026-04-30 11:33 40.64878 116.71521 27111 ft 444 kts 320°
2026-04-30 11:33 40.67211 116.68844 27376 ft 445 kts 320°
2026-04-30 11:33 40.69549 116.66155 27653 ft 446 kts 320°
2026-04-30 11:34 40.71882 116.63462 27936 ft 447 kts 320°
2026-04-30 11:34 40.74266 116.60820 28206 ft 447 kts 325°
2026-04-30 11:34 40.76909 116.58677 28558 ft 445 kts 334°
2026-04-30 11:34 40.79766 116.57146 28940 ft 442 kts 343°
2026-04-30 11:35 40.82753 116.56265 29331 ft 440 kts 352°
2026-04-30 11:35 40.85803 116.55930 29719 ft 439 kts 356°
2026-04-30 11:35 40.88848 116.55653 30079 ft 438 kts 355°
2026-04-30 11:35 40.91879 116.55370 30375 ft 437 kts 355°
2026-04-30 11:36 40.94921 116.55083 30661 ft 437 kts 355°
2026-04-30 11:36 40.97947 116.54798 30926 ft 436 kts 355°
2026-04-30 11:36 41.00976 116.54512 31201 ft 436 kts 355°
2026-04-30 11:36 41.04007 116.54229 31465 ft 436 kts 355°
2026-04-30 11:37 41.06996 116.53950 31748 ft 436 kts 355°
2026-04-30 11:37 41.10023 116.53665 32032 ft 436 kts 355°
2026-04-30 11:37 41.13082 116.53377 32310 ft 435 kts 355°
2026-04-30 11:37 41.16065 116.53095 32581 ft 435 kts 355°
2026-04-30 11:38 41.19085 116.52811 32862 ft 435 kts 355°
2026-04-30 11:38 41.22118 116.52361 33142 ft 433 kts 347°
2026-04-30 11:38 41.25015 116.51284 33407 ft 432 kts 338°
2026-04-30 11:38 41.27692 116.49606 33668 ft 431 kts 329°
2026-04-30 11:39 41.30264 116.47561 33921 ft 431 kts 328°
2026-04-30 11:39 41.32838 116.45520 33985 ft 430 kts 329°
2026-04-30 11:39 41.37983 116.41454 33995 ft 429 kts 328°
2026-04-30 11:40 41.43110 116.37401 34001 ft 428 kts 329°
2026-04-30 11:40 41.48238 116.33351 33999 ft 428 kts 328°
2026-04-30 11:41 41.53350 116.29295 34007 ft 427 kts 328°
2026-04-30 11:41 41.58448 116.25225 34007 ft 426 kts 328°
2026-04-30 11:42 41.63528 116.21172 34011 ft 425 kts 328°
2026-04-30 11:42 41.68608 116.17118 34009 ft 424 kts 328°
2026-04-30 11:43 41.73666 116.13069 34011 ft 424 kts 328°
2026-04-30 11:43 41.78723 116.09014 34015 ft 423 kts 328°
2026-04-30 11:44 41.83732 116.04982 34015 ft 422 kts 328°
2026-04-30 11:44 41.88763 116.00933 34016 ft 422 kts 327°
2026-04-30 11:45 41.93716 115.96713 34018 ft 420 kts 320°
2026-04-30 11:45 41.97574 115.90913 34006 ft 414 kts 301°
2026-04-30 11:46 42.00318 115.84224 34012 ft 406 kts 298°
2026-04-30 11:46 42.03019 115.77575 34025 ft 405 kts 298°
2026-04-30 11:47 42.05714 115.70937 34014 ft 404 kts 298°
2026-04-30 11:47 42.08405 115.64286 34023 ft 404 kts 298°
2026-04-30 11:48 42.11080 115.57635 34021 ft 404 kts 298°
2026-04-30 11:48 42.13752 115.50982 34018 ft 404 kts 298°
2026-04-30 11:49 42.16424 115.44318 34027 ft 404 kts 298°
2026-04-30 11:49 42.19089 115.37649 34017 ft 404 kts 298°
2026-04-30 11:50 42.21733 115.31012 34022 ft 403 kts 298°
2026-04-30 11:50 42.24383 115.24335 34028 ft 403 kts 297°
2026-04-30 11:51 42.26526 115.18688 34016 ft 403 kts 297°
2026-04-30 11:51 42.29027 115.11949 34020 ft 403 kts 297°
2026-04-30 11:52 42.31542 115.05175 34022 ft 403 kts 297°
2026-04-30 11:52 42.34037 114.98475 34014 ft 403 kts 297°
2026-04-30 11:53 42.36562 114.91698 34027 ft 403 kts 297°
2026-04-30 11:53 42.39085 114.84929 34029 ft 403 kts 297°
2026-04-30 11:54 42.41597 114.78165 34018 ft 402 kts 297°
2026-04-30 11:54 42.44107 114.71389 34023 ft 402 kts 297°
2026-04-30 11:55 42.46604 114.64617 34019 ft 402 kts 296°
2026-04-30 11:55 42.49097 114.57841 34016 ft 402 kts 296°
2026-04-30 11:56 42.51586 114.51062 34020 ft 401 kts 296°
2026-04-30 11:56 42.54073 114.44297 34019 ft 401 kts 296°
2026-04-30 11:57 42.56556 114.37525 34022 ft 401 kts 296°
2026-04-30 11:57 42.59030 114.30752 34021 ft 400 kts 296°
2026-04-30 11:58 42.61487 114.23973 34023 ft 400 kts 296°
2026-04-30 11:58 42.63964 114.17217 34027 ft 400 kts 297°
2026-04-30 11:59 42.66548 114.10532 34016 ft 399 kts 297°
2026-04-30 11:59 42.69150 114.03869 34015 ft 399 kts 297°
2026-04-30 12:00 42.71724 113.97184 34026 ft 399 kts 297°
2026-04-30 12:00 42.74281 113.90498 34018 ft 398 kts 297°
2026-04-30 12:01 42.76838 113.83810 34021 ft 398 kts 297°
2026-04-30 12:01 42.79387 113.77130 34010 ft 397 kts 297°
2026-04-30 12:02 42.81908 113.70490 34019 ft 397 kts 296°
2026-04-30 12:02 42.84434 113.63804 34030 ft 397 kts 296°
2026-04-30 12:03 42.88226 113.53775 34017 ft 396 kts 296°
2026-04-30 12:04 42.90746 113.47087 34018 ft 396 kts 296°
2026-04-30 12:04 42.93266 113.40393 34026 ft 396 kts 296°
2026-04-30 12:05 42.95773 113.33706 34022 ft 396 kts 296°
2026-04-30 12:05 42.98279 113.27019 34023 ft 396 kts 296°
2026-04-30 12:06 43.00778 113.20325 34024 ft 395 kts 296°
2026-04-30 12:06 43.03294 113.13649 34030 ft 395 kts 296°
2026-04-30 12:07 43.05856 113.07008 34032 ft 395 kts 297°
2026-04-30 12:07 43.08418 113.00361 34032 ft 395 kts 296°
2026-04-30 12:08 43.10958 112.93702 34031 ft 395 kts 296°
2026-04-30 12:08 43.13485 112.87035 34037 ft 395 kts 296°
2026-04-30 12:09 43.15992 112.80410 34042 ft 394 kts 296°
2026-04-30 12:09 43.18513 112.73739 34048 ft 394 kts 296°
2026-04-30 12:10 43.21033 112.67063 34047 ft 394 kts 296°
2026-04-30 12:10 43.23554 112.60378 34051 ft 394 kts 296°
2026-04-30 12:11 43.26070 112.53692 34052 ft 394 kts 296°
2026-04-30 12:11 43.28573 112.47006 34055 ft 394 kts 296°
2026-04-30 12:12 43.31078 112.40309 34060 ft 394 kts 296°
2026-04-30 12:12 43.33579 112.33609 34062 ft 394 kts 296°
2026-04-30 12:13 43.36076 112.26914 34065 ft 394 kts 295°
2026-04-30 12:13 43.38563 112.20201 34065 ft 394 kts 295°
2026-04-30 12:14 43.41404 112.13761 34072 ft 397 kts 308°
2026-04-30 12:14 43.45735 112.08944 34081 ft 406 kts 323°
2026-04-30 12:15 43.50535 112.04909 34082 ft 407 kts 323°
2026-04-30 12:15 43.55351 112.00829 34086 ft 407 kts 323°
2026-04-30 12:16 43.60182 111.96756 34085 ft 407 kts 323°
2026-04-30 12:16 43.65012 111.92686 34093 ft 407 kts 323°
2026-04-30 12:17 43.71446 111.85335 34103 ft 399 kts 310°
2026-04-30 12:17 43.75335 111.79853 34108 ft 399 kts 310°
2026-04-30 12:18 43.79230 111.74368 34111 ft 400 kts 311°
2026-04-30 12:18 43.83125 111.68876 34116 ft 399 kts 311°
2026-04-30 12:19 43.87014 111.63374 34120 ft 400 kts 310°
2026-04-30 12:19 43.90897 111.57854 34122 ft 400 kts 310°
2026-04-30 12:20 43.94780 111.52332 34125 ft 400 kts 310°
2026-04-30 12:20 43.98671 111.46802 34127 ft 400 kts 310°
2026-04-30 12:21 44.02557 111.41263 34133 ft 400 kts 310°
2026-04-30 12:21 44.06436 111.35714 34138 ft 400 kts 310°
2026-04-30 12:22 44.10316 111.30152 34137 ft 401 kts 310°
2026-04-30 12:22 44.14178 111.24616 34142 ft 401 kts 310°
2026-04-30 12:23 44.18062 111.19032 34144 ft 401 kts 310°
2026-04-30 12:23 44.21939 111.13433 34146 ft 402 kts 310°
2026-04-30 12:24 44.25819 111.07830 34144 ft 402 kts 310°
2026-04-30 12:24 44.29705 111.02225 34145 ft 402 kts 310°
2026-04-30 12:25 44.33596 110.96605 34149 ft 402 kts 310°
2026-04-30 12:25 44.37469 110.90971 34152 ft 402 kts 310°
2026-04-30 12:26 44.41342 110.85318 34151 ft 403 kts 310°
2026-04-30 12:26 44.45215 110.79653 34154 ft 403 kts 310°
2026-04-30 12:27 44.49089 110.73984 34165 ft 403 kts 310°
2026-04-30 12:27 44.52965 110.68316 34162 ft 403 kts 310°
2026-04-30 12:28 44.56836 110.62645 34173 ft 403 kts 310°
2026-04-30 12:28 44.60706 110.56954 34166 ft 403 kts 310°
2026-04-30 12:29 44.64577 110.51258 34167 ft 403 kts 310°
2026-04-30 12:29 44.68438 110.45555 34173 ft 403 kts 310°
2026-04-30 12:30 44.72298 110.39844 34171 ft 403 kts 310°
2026-04-30 12:30 44.76157 110.34126 34172 ft 403 kts 310°
2026-04-30 12:31 44.80010 110.28396 34177 ft 403 kts 310°
2026-04-30 12:31 44.83859 110.22655 34177 ft 403 kts 309°
2026-04-30 12:32 44.87708 110.16905 34181 ft 403 kts 309°
2026-04-30 12:32 44.91541 110.11126 34180 ft 403 kts 308°
2026-04-30 12:33 44.95230 110.05187 34181 ft 402 kts 307°
2026-04-30 12:33 44.98859 109.99171 34188 ft 402 kts 307°
2026-04-30 12:34 45.01888 109.94180 34184 ft 402 kts 307°
2026-04-30 12:34 45.05550 109.88194 34184 ft 403 kts 307°
2026-04-30 12:35 45.09813 109.81228 34190 ft 403 kts 307°
2026-04-30 12:35 45.13479 109.75226 34192 ft 403 kts 307°
2026-04-30 12:36 45.16543 109.70182 34195 ft 403 kts 307°
2026-04-30 12:36 45.20193 109.64158 34196 ft 403 kts 307°
2026-04-30 12:37 45.23817 109.58169 34199 ft 403 kts 307°
2026-04-30 12:37 45.27465 109.52140 34200 ft 403 kts 307°
2026-04-30 12:38 45.31116 109.46098 34199 ft 403 kts 307°
2026-04-30 12:38 45.34750 109.40050 34203 ft 402 kts 307°
2026-04-30 12:39 45.38384 109.33995 34200 ft 402 kts 307°
2026-04-30 12:39 45.42010 109.27933 34205 ft 402 kts 307°
2026-04-30 12:40 45.45645 109.21862 34205 ft 402 kts 307°
2026-04-30 12:40 45.49269 109.15791 34206 ft 402 kts 307°
2026-04-30 12:41 45.52879 109.09712 34209 ft 402 kts 307°
2026-04-30 12:41 45.56489 109.03615 34208 ft 402 kts 307°
2026-04-30 12:42 45.60097 108.97540 34213 ft 401 kts 307°
2026-04-30 12:42 45.63701 108.91452 34213 ft 401 kts 307°
2026-04-30 12:43 45.67275 108.85390 34216 ft 401 kts 307°
2026-04-30 12:43 45.70871 108.79280 34215 ft 401 kts 307°
2026-04-30 12:44 45.74463 108.73160 34218 ft 401 kts 307°
2026-04-30 12:44 45.78060 108.67045 34217 ft 401 kts 307°
2026-04-30 12:45 45.81671 108.60941 34214 ft 401 kts 307°
2026-04-30 12:45 45.85276 108.54821 34216 ft 402 kts 307°
2026-04-30 12:46 45.88881 108.48703 34214 ft 401 kts 307°
2026-04-30 12:46 45.92480 108.42574 34214 ft 401 kts 307°
2026-04-30 12:47 45.96076 108.36427 34216 ft 401 kts 307°
2026-04-30 12:47 45.99658 108.30272 34214 ft 401 kts 307°
2026-04-30 12:48 46.03237 108.24109 34218 ft 401 kts 307°
2026-04-30 12:48 46.06826 108.17938 34214 ft 402 kts 307°
2026-04-30 12:49 46.10407 108.11763 34216 ft 402 kts 307°
2026-04-30 12:49 46.13982 108.05576 34215 ft 402 kts 307°
2026-04-30 12:50 46.17559 107.99376 34215 ft 402 kts 306°
2026-04-30 12:50 46.21126 107.93172 34213 ft 402 kts 306°
2026-04-30 12:51 46.24672 107.86998 34213 ft 402 kts 306°
2026-04-30 12:51 46.28245 107.80778 34211 ft 402 kts 306°
2026-04-30 12:52 46.31812 107.74534 34212 ft 403 kts 306°
2026-04-30 12:52 46.35372 107.68275 34208 ft 403 kts 306°
2026-04-30 12:53 46.38926 107.62007 34208 ft 403 kts 306°
2026-04-30 12:53 46.42488 107.55740 34210 ft 403 kts 306°
2026-04-30 12:54 46.46053 107.49450 34212 ft 404 kts 306°
2026-04-30 12:54 46.49622 107.43140 34211 ft 404 kts 306°
2026-04-30 12:55 46.53185 107.36822 34212 ft 405 kts 306°
2026-04-30 12:55 46.56754 107.30485 34214 ft 405 kts 306°
2026-04-30 12:56 46.60318 107.24140 34220 ft 405 kts 306°
2026-04-30 12:56 46.63875 107.17773 34222 ft 406 kts 305°
2026-04-30 12:57 46.67439 107.11387 34223 ft 406 kts 306°
2026-04-30 12:57 46.70979 107.05045 34226 ft 406 kts 305°
2026-04-30 12:58 46.74569 106.98603 34236 ft 407 kts 305°
2026-04-30 12:58 46.78128 106.92194 34242 ft 407 kts 305°
2026-04-30 12:59 46.81689 106.85761 34240 ft 407 kts 305°
2026-04-30 12:59 46.85212 106.79349 34250 ft 408 kts 305°
2026-04-30 13:00 46.88724 106.72826 34257 ft 408 kts 304°
2026-04-30 13:00 46.92221 106.66288 34258 ft 408 kts 304°
2026-04-30 13:01 46.95720 106.59753 34268 ft 408 kts 304°
2026-04-30 13:01 46.99222 106.53204 34268 ft 409 kts 304°
2026-04-30 13:02 47.02727 106.46644 34276 ft 409 kts 304°
2026-04-30 13:02 47.06231 106.40072 34295 ft 409 kts 304°
2026-04-30 13:03 47.09741 106.33475 34286 ft 410 kts 304°
2026-04-30 13:03 47.13223 106.26917 34292 ft 410 kts 304°
2026-04-30 13:04 47.16721 106.20287 34298 ft 411 kts 304°
2026-04-30 13:04 47.20221 106.13646 34303 ft 411 kts 304°
2026-04-30 13:05 47.23723 106.06993 34304 ft 412 kts 304°
2026-04-30 13:06 47.28974 105.96981 34312 ft 412 kts 304°
2026-04-30 13:06 47.32477 105.90280 34312 ft 413 kts 304°
2026-04-30 13:07 47.35982 105.83576 34320 ft 413 kts 304°
2026-04-30 13:07 47.39485 105.76855 34316 ft 413 kts 304°
2026-04-30 13:08 47.42986 105.70112 34312 ft 414 kts 304°
2026-04-30 13:08 47.46483 105.63353 34324 ft 414 kts 304°
2026-04-30 13:09 47.49984 105.56567 34326 ft 415 kts 304°
2026-04-30 13:09 47.53486 105.49769 34329 ft 415 kts 304°
2026-04-30 13:10 47.56991 105.42976 34332 ft 416 kts 305°
2026-04-30 13:10 47.60538 105.36180 34331 ft 417 kts 305°
2026-04-30 13:11 47.64081 105.29370 34333 ft 417 kts 305°
2026-04-30 13:11 47.67619 105.22529 34340 ft 418 kts 305°
2026-04-30 13:12 47.71155 105.15668 34343 ft 419 kts 305°
2026-04-30 13:12 47.74670 105.08839 34346 ft 419 kts 305°
2026-04-30 13:13 47.79979 104.98476 34353 ft 421 kts 305°
2026-04-30 13:14 47.85207 104.87964 34351 ft 421 kts 304°
2026-04-30 13:14 47.90410 104.77373 34354 ft 423 kts 304°
2026-04-30 13:15 47.95636 104.66759 34355 ft 424 kts 304°
2026-04-30 13:16 47.99124 104.59659 34358 ft 425 kts 304°
2026-04-30 13:16 48.02612 104.52536 34361 ft 425 kts 304°
2026-04-30 13:17 48.07832 104.41787 34362 ft 426 kts 304°
2026-04-30 13:18 48.13067 104.31016 34361 ft 427 kts 304°
2026-04-30 13:18 48.18304 104.20202 34367 ft 428 kts 304°
2026-04-30 13:19 48.21792 104.12960 34366 ft 429 kts 304°
2026-04-30 13:19 48.25279 104.05701 34375 ft 429 kts 304°
2026-04-30 13:20 48.28180 103.99650 34373 ft 430 kts 304°
2026-04-30 13:20 48.31668 103.92356 34377 ft 430 kts 304°
2026-04-30 13:21 48.35157 103.85052 34379 ft 431 kts 304°
2026-04-30 13:22 48.40383 103.74046 34378 ft 431 kts 305°
2026-04-30 13:22 48.45608 103.63007 34380 ft 432 kts 305°
2026-04-30 13:23 48.50833 103.51936 34379 ft 432 kts 305°
2026-04-30 13:24 48.57759 103.37182 34384 ft 433 kts 305°
2026-04-30 13:25 48.64961 103.22577 34388 ft 433 kts 307°
2026-04-30 13:26 48.74073 103.04388 34393 ft 434 kts 307°
2026-04-30 13:28 48.83113 102.86036 34397 ft 435 kts 307°
2026-04-30 13:28 48.88553 102.75019 34397 ft 435 kts 307°
2026-04-30 13:29 48.95735 102.60286 34394 ft 435 kts 307°
2026-04-30 13:31 49.04758 102.41774 34394 ft 435 kts 307°
2026-04-30 13:32 49.13726 102.23170 34386 ft 435 kts 307°
2026-04-30 13:33 49.20638 102.07991 34386 ft 437 kts 297°
2026-04-30 13:34 49.23896 101.94922 34388 ft 439 kts 292°
2026-04-30 13:35 49.28137 101.77426 34380 ft 431 kts 292°
2026-04-30 13:35 49.30135 101.69104 34391 ft 404 kts 292°
2026-04-30 13:36 49.32058 101.61100 34387 ft 399 kts 292°
2026-04-30 13:36 49.34920 101.49147 34382 ft 398 kts 292°
2026-04-30 13:37 49.37763 101.37170 34383 ft 398 kts 291°
2026-04-30 13:38 49.40588 101.25175 34386 ft 398 kts 292°
2026-04-30 13:39 49.44351 101.09160 34379 ft 399 kts 291°
2026-04-30 13:40 49.47129 100.97171 34383 ft 399 kts 291°
2026-04-30 13:40 49.48995 100.89144 34370 ft 399 kts 292°
2026-04-30 13:41 49.50854 100.81111 34373 ft 399 kts 291°
2026-04-30 13:41 49.52711 100.73072 34364 ft 399 kts 291°
2026-04-30 13:42 49.54554 100.65020 34362 ft 399 kts 291°
2026-04-30 13:42 49.57296 100.52933 34364 ft 398 kts 291°
2026-04-30 13:43 49.59122 100.44891 34363 ft 398 kts 291°
2026-04-30 13:43 49.60945 100.36818 34364 ft 398 kts 291°
2026-04-30 13:44 49.62763 100.28738 34372 ft 398 kts 291°
2026-04-30 13:44 49.64576 100.20663 34365 ft 398 kts 291°
2026-04-30 13:45 49.66994 100.13094 34366 ft 395 kts 303°
2026-04-30 13:45 49.68426 100.09413 34366 ft 395 kts 303°
2026-04-30 13:46 49.71221 100.02161 34366 ft 395 kts 302°
2026-04-30 13:46 49.74034 99.94859 34363 ft 395 kts 303°
2026-04-30 13:47 49.76841 99.87556 34365 ft 395 kts 303°
2026-04-30 13:47 49.79645 99.80238 34359 ft 395 kts 302°
2026-04-30 13:48 49.82443 99.72917 34360 ft 395 kts 302°
2026-04-30 13:48 49.85235 99.65595 34356 ft 395 kts 302°
2026-04-30 13:49 49.88017 99.58263 34355 ft 395 kts 302°
2026-04-30 13:49 49.90793 99.50918 34353 ft 395 kts 302°
2026-04-30 13:50 49.93634 99.43418 34355 ft 411 kts 302°
2026-04-30 13:50 49.96581 99.35620 34350 ft 423 kts 302°
2026-04-30 13:50 49.98066 99.31665 34349 ft 425 kts 302°
2026-04-30 13:51 50.01041 99.23720 34347 ft 425 kts 302°
2026-04-30 13:51 50.04016 99.15766 34349 ft 425 kts 302°
2026-04-30 13:52 50.06979 99.07803 34352 ft 425 kts 302°
2026-04-30 13:52 50.09937 98.99837 34353 ft 425 kts 302°
2026-04-30 13:53 50.12898 98.91863 34354 ft 425 kts 302°
2026-04-30 13:53 50.15840 98.83884 34357 ft 424 kts 302°
2026-04-30 13:54 50.18772 98.75903 34363 ft 424 kts 302°
2026-04-30 13:54 50.21703 98.67918 34365 ft 423 kts 302°
2026-04-30 13:55 50.24627 98.59932 34371 ft 423 kts 302°
2026-04-30 13:55 50.27537 98.51941 34371 ft 423 kts 302°
2026-04-30 13:56 50.30446 98.43954 34372 ft 423 kts 302°
2026-04-30 13:56 50.33350 98.35941 34381 ft 423 kts 302°
2026-04-30 13:57 50.36230 98.27901 34415 ft 424 kts 301°
2026-04-30 13:57 50.37614 98.23829 34714 ft 423 kts 300°
2026-04-30 13:57 50.38935 98.19797 35018 ft 423 kts 299°
2026-04-30 13:58 50.40264 98.15667 35304 ft 422 kts 299°
2026-04-30 13:58 50.42898 98.07450 35819 ft 421 kts 299°
2026-04-30 13:58 50.44218 98.03350 36071 ft 421 kts 299°
2026-04-30 13:59 50.45542 97.99258 36244 ft 421 kts 299°
2026-04-30 13:59 50.48174 97.91158 36286 ft 405 kts 299°
2026-04-30 14:00 50.50693 97.83383 36291 ft 396 kts 299°
2026-04-30 14:00 50.54413 97.71841 36294 ft 394 kts 299°
2026-04-30 14:01 50.56884 97.64138 36291 ft 394 kts 299°
2026-04-30 14:01 50.59344 97.56448 36291 ft 394 kts 299°
2026-04-30 14:02 50.61810 97.48742 36296 ft 393 kts 299°
2026-04-30 14:02 50.64243 97.41090 36303 ft 393 kts 299°
2026-04-30 14:03 50.66686 97.33372 36299 ft 393 kts 299°
2026-04-30 14:03 50.67380 97.31170 36297 ft 393 kts 299°
2026-04-30 14:42 50.68608 97.27568 36323 ft 395 kts 300°
2026-04-30 14:42 50.71083 97.19750 36321 ft 404 kts 298°
2026-04-30 14:43 50.73547 97.11627 36318 ft 416 kts 298°
2026-04-30 14:43 50.76105 97.03338 36323 ft 422 kts 298°
2026-04-30 14:44 50.78698 96.95020 36323 ft 422 kts 298°
2026-04-30 14:44 50.81294 96.86688 36326 ft 423 kts 298°
2026-04-30 14:45 50.83886 96.78348 36328 ft 422 kts 298°
2026-04-30 14:45 50.86474 96.69999 36326 ft 422 kts 298°
2026-04-30 14:46 50.89046 96.61624 36327 ft 423 kts 298°
2026-04-30 14:46 50.91173 96.54653 36327 ft 423 kts 298°
2026-04-30 14:47 50.94167 96.44846 36322 ft 423 kts 298°
2026-04-30 14:47 50.96727 96.36447 36312 ft 423 kts 298°
2026-04-30 14:48 50.99277 96.28043 36309 ft 423 kts 298°
2026-04-30 14:48 51.01827 96.19633 36319 ft 423 kts 298°
2026-04-30 14:49 51.04373 96.11204 36308 ft 423 kts 298°
2026-04-30 14:49 51.06901 96.02762 36310 ft 423 kts 298°
2026-04-30 14:50 51.10671 95.90140 36310 ft 423 kts 298°
2026-04-30 14:51 51.14452 95.77436 36312 ft 423 kts 298°
2026-04-30 14:52 51.17808 95.66092 36313 ft 423 kts 298°
2026-04-30 14:52 51.21549 95.53357 36308 ft 423 kts 298°
2026-04-30 14:53 51.25286 95.40598 36305 ft 423 kts 298°
2026-04-30 14:54 51.30232 95.23606 36300 ft 423 kts 298°
2026-04-30 14:55 51.33941 95.10795 36296 ft 423 kts 298°
2026-04-30 14:56 51.38867 94.93688 36292 ft 424 kts 297°
2026-04-30 14:57 51.42533 94.80811 36292 ft 424 kts 297°
2026-04-30 14:58 51.47414 94.63617 36291 ft 424 kts 297°
2026-04-30 14:58 51.51060 94.50695 36294 ft 424 kts 297°
2026-04-30 15:00 51.57105 94.29111 36297 ft 424 kts 297°
2026-04-30 15:01 51.62403 94.12270 36305 ft 420 kts 302°
2026-04-30 15:01 51.66688 93.99951 36298 ft 420 kts 302°
2026-04-30 15:02 51.69543 93.91734 36303 ft 420 kts 302°
2026-04-30 15:03 51.76636 93.71125 36309 ft 421 kts 302°
2026-04-30 15:04 51.83682 93.50478 36304 ft 421 kts 302°
2026-04-30 15:06 51.90723 93.29715 36297 ft 421 kts 302°
2026-04-30 15:07 51.96314 93.13044 36292 ft 421 kts 301°
2026-04-30 15:08 52.01913 92.96343 36291 ft 421 kts 301°
2026-04-30 15:09 52.08849 92.75370 36286 ft 421 kts 301°
2026-04-30 15:10 52.14386 92.58558 36277 ft 422 kts 301°
2026-04-30 15:11 52.22639 92.33232 36268 ft 422 kts 301°
2026-04-30 15:13 52.29486 92.12042 36265 ft 422 kts 301°
2026-04-30 15:14 52.39017 91.82226 36272 ft 423 kts 300°
2026-04-30 15:17 52.51163 91.43725 36285 ft 423 kts 300°
2026-04-30 15:19 52.61868 91.09257 36289 ft 423 kts 300°